#timestamp,LO_Frequency,Hit,StdDev 
1551088815.7,286046998.2,N
1551088835.5,286046998.1,P
1551088855.4,286047002.8,P
1551088875.2,286047002.6,N
1551088895.0,286047002.1,N
1551088896.0,286047002.1,N
1551088915.8,286047000.8,N
1551088935.6,286046999.1,N
1551088955.5,286046996.7,N
1551088975.3,286046998.0,N
1551088995.1,286046995.0,N
1551089015.9,286046993.7,N
1551089035.7,286046996.2,N
1551089055.6,286046996.2,N
1551089075.4,286046996.2,N
1551089095.2,286046995.4,N
1551089115.1,286046995.3,N
1551089116.0,286046995.3,N
1551089135.8,286046997.9,N
1551089155.6,286046997.1,N
1551089175.5,286046996.7,N
1551089195.3,286046999.2,N
1551089215.2,286046998.8,N
1551089235.9,286046996.7,N
1551089255.7,286046995.0,N
1551089275.6,286046995.3,N
1551089295.4,286046997.9,N
1551089315.2,286046995.1,N
1551089335.1,286046996.9,N
1551089336.0,286046996.9,N
1551089355.8,286046996.7,N
1551089375.7,286046997.7,N
1551089395.5,286046997.6,N
1551089415.3,286046995.1,N
1551089435.2,286046995.3,N
1551089455.0,286046993.4,Y
1551089455.9,286046993.4,P
1551089475.8,286046999.6,N
1551089495.6,286046997.0,N
1551089515.4,286046995.3,N
1551089535.3,286046996.4,N
1551089555.1,286046995.0,N
1551089575.8,286046995.7,N
1551089595.7,286046995.8,N
1551089615.5,286046995.8,N
1551089635.4,286046993.4,Y
1551089655.2,286046999.1,P
1551089675.0,286046999.5,N
1551089675.9,286046999.5,N
1551089695.8,286046997.2,N
1551089715.6,286046995.4,Y
1551089735.5,286046997.4,P
1551089755.3,286046996.8,P
1551089775.1,286046998.3,N
1551089795.9,286046999.9,N
1551089815.7,286047000.8,N
1551089835.5,286047002.8,N
1551089855.4,286046999.7,N
1551089875.2,286047001.8,N
1551089895.1,286047001.4,N
1551089896.0,286047001.4,N
1551089915.8,286047001.9,N
1551089935.6,286046999.9,N
1551089955.5,286047000.6,N
1551089975.3,286046998.6,N
1551089995.2,286046998.4,N
1551090015.9,286046999.2,N
1551090035.7,286046996.8,N
1551090055.6,286047002.7,N
1551090075.4,286047002.1,N
1551090095.2,286047001.8,N
1551090115.1,286047000.4,N
1551090116.0,286047000.4,N
1551090135.8,286047001.1,N
1551090155.7,286046999.5,N
1551090175.5,286046998.6,N
1551090195.3,286046996.5,N
1551090215.2,286046999.3,N
1551090235.0,286046997.0,N
1551090235.9,286046997.0,N
1551090255.7,286046999.6,N
1551090275.6,286046997.8,N
1551090295.4,286047001.2,N
1551090315.3,286047001.4,N
1551090335.1,286047000.4,N
1551090336.0,286047000.4,N
1551090355.8,286047000.7,N
1551090375.7,286047000.4,N
1551090395.5,286046999.9,N
1551090415.3,286047000.5,N
1551090435.2,286047000.0,N
1551090455.0,286047000.7,N
1551090455.9,286047000.7,N
1551090475.8,286046998.1,N
1551090495.6,286047002.3,N
1551090515.4,286047003.9,N
1551090535.3,286047003.8,N
1551090555.1,286047003.9,N
1551090575.8,286047001.6,N
1551090595.7,286047003.6,N
1551090615.5,286047004.4,N
1551090635.4,286047005.5,N
1551090655.2,286047006.0,N
1551090675.0,286047005.2,N
1551090675.9,286047005.2,N
1551090695.8,286047004.8,N
1551090715.6,286047004.9,N
1551090735.4,286047006.9,N
1551090755.3,286047005.9,N
1551090775.1,286047002.0,N
1551090795.9,286046999.7,N
1551090815.7,286047000.1,N
1551090835.5,286046999.9,N
1551090855.4,286046998.7,N
1551090875.2,286046996.6,N
1551090895.0,286047002.7,N
1551090896.0,286047002.7,N
1551090915.8,286047002.6,N
1551090935.6,286047000.0,N
1551090955.5,286046999.3,N
1551090975.3,286046999.1,N
1551090995.1,286046998.7,N
1551091015.9,286046998.2,N
1551091035.7,286046998.6,N
1551091055.6,286046996.6,N
1551091075.4,286046995.4,N
1551091095.2,286047011.9,Y
1551091115.1,286046992.5,P
1551091116.0,286046992.5,N
1551091135.8,286046992.5,N
1551091155.6,286046992.5,N
1551091175.5,286046994.7,N
1551091195.3,286046990.1,N
1551091215.2,286046990.1,N
1551091235.9,286046993.1,N
1551091255.7,286046993.2,N
1551091275.6,286046990.2,Y
1551091295.4,286046999.2,P
1551091315.2,286046999.6,N
1551091335.1,286046995.8,N
1551091336.0,286046995.8,N
1551091355.8,286046996.1,N
1551091375.7,286046994.0,N
1551091395.5,286046994.7,N
1551091415.3,286046993.8,N
1551091435.2,286046994.6,N
1551091455.0,286046991.8,Y
1551091455.9,286046991.8,P
1551091475.8,286046998.4,N
1551091495.6,286046999.5,N
1551091515.4,286046999.2,N
1551091535.3,286047001.1,N
1551091555.1,286047000.9,N
1551091575.8,286046998.2,N
1551091595.7,286046998.2,N
1551091615.5,286046998.7,N
1551091635.4,286046998.2,N
1551091655.2,286047000.8,N
1551091675.0,286046999.3,N
1551091675.9,286046999.3,N
1551091695.8,286046998.1,N
1551091715.6,286047000.6,N
1551091735.4,286046998.5,N
1551091755.3,286047000.5,N
1551091775.1,286046999.3,N
1551091795.9,286047001.2,N
1551091815.7,286047002.4,N
1551091835.5,286046998.6,N
1551091855.4,286047000.5,N
1551091875.2,286047000.2,N
1551091895.1,286047000.9,N
1551091896.0,286047000.9,N
1551091915.8,286046998.3,N
1551091935.6,286047000.9,N
1551091955.5,286046998.6,N
1551091975.3,286046998.9,N
1551091995.1,286047001.1,N
1551092015.9,286047002.4,N
1551092035.7,286047000.2,N
1551092055.6,286047000.1,N
1551092075.4,286046999.2,N
1551092095.2,286046997.0,N
1551092115.1,286046997.0,N
1551092116.0,286046997.0,N
1551092135.8,286046996.5,N
1551092155.7,286046996.7,N
1551092175.5,286046997.1,N
1551092195.3,286046998.4,N
1551092215.2,286046997.9,N
1551092235.9,286046995.1,N
1551092255.7,286046996.1,N
1551092275.6,286046993.8,Y
1551092295.4,286046997.4,P
1551092315.3,286046997.2,P
1551092335.1,286046999.0,N
1551092336.0,286046999.0,N
1551092355.8,286046998.3,N
1551092375.7,286046999.4,N
1551092395.5,286046998.0,N
